Change the Weather History Date:

Sunday, May 11, 2014

  Actual Average Record
Temperature  
Mean Temperature 44 °F 54 °F  
Max Temperature 48 °F 67 °F 96 °F (1906)
Min Temperature 39 °F 41 °F 24 °F (1952)
Degree Days  
Heating Degree Days 21 11  
Month to date heating degree days 189 143  
Since 1 July heating degree days 8915 8298  
Cooling Degree Days 0 0  
Month to date cooling degree days 0 0  
Year to date cooling degree days 0 1  
Moisture  
Dew Point 36 °F    
Average Humidity 77    
Maximum Humidity 83    
Minimum Humidity 70    
Precipitation  
Precipitation 0.01 in 0.07 in 1.90 in (1985)
Month to date precipitation 0.16 0.74  
Year to date precipitation 3.50 3.81  
Snow  
Snow 0.00 in 0.00 in 1.80 in (1953)
Month to date snowfall T 0.3  
Since 1 July snowfall 40.5 51.1  
Snow Depth 0.00 in    
Sea Level Pressure  
Sea Level Pressure 30.00 in    
Wind  
Wind Speed 16 mph (NNW)    
Max Wind Speed 29 mph    
Max Gust Speed 36 mph    
Visibility 9 miles    
Events Rain    
T = Trace of Precipitation, MM = Missing Value Source: NWS Daily Summary

Daily Weather History Graph

Daily Weather History Graph

Search for Another Location

Airport or City:

Trip Planner

Search our weather history database for the weather conditions in past years. The results will help you decide how hot, cold, wet, or windy it might be!

Date:

Astronomy

May. 11, 2014 Rise Set
Actual Time 6:13 AM CDT 9:06 PM CDT
Civil Twilight 5:38 AM CDT 9:41 PM CDT
Nautical Twilight 4:53 AM CDT 10:26 PM CDT
Astronomical Twilight 3:59 AM CDT 11:20 PM CDT
Moon 5:52 PM CDT (5/11) 4:32 AM CDT (5/11)
Length of Visible Light 16h 03m
Length of Day
14h 52m
Waxing Gibbous, 89% of the Moon is Illuminated
May 11
Waxing Gibbous
May 14
Full
May 21
Last Quarter
May 28
New
Jun 5
First Quarter

Hourly Weather History & Observations

Time (CDT) Temp. Windchill Dew Point Humidity Pressure Visibility Wind Dir Wind Speed Gust Speed Precip Events Conditions
12:50 AM 46.4 °F 41.5 °F - N/A% 29.83 in 10.0 mi West 10.4 mph - 0.00 in   Overcast
12:52 AM 46.4 °F 41.1 °F - N/A% 29.83 in 10.0 mi West 11.5 mph - N/A   Overcast
1:52 AM 46.9 °F - - N/A% 29.83 in 6.0 mi NNW 13.8 mph - 0.00 in   Haze
2:52 AM 46.9 °F - - N/A% 29.87 in 10.0 mi WNW 8.1 mph - N/A   Overcast
3:48 AM 46.4 °F 41.5 °F - N/A% 29.86 in 10.0 mi NW 10.4 mph - N/A   Overcast
3:52 AM 46.9 °F - - N/A% 29.89 in 10.0 mi NW 8.1 mph - N/A   Overcast
4:11 AM 46.9 °F - - N/A% 29.88 in 9.0 mi NW 10.4 mph - 0.00 in Rain Light Rain
4:50 AM 46.4 °F 41.1 °F - N/A% 29.88 in 5.0 mi NW 11.5 mph - 0.01 in Rain Light Rain
4:52 AM 46.0 °F 40.2 °F - N/A% 29.90 in 5.0 mi NW 12.7 mph - 0.01 in Rain Light Rain
5:11 AM 46.0 °F 40.2 °F - N/A% 29.88 in 6.0 mi NW 12.7 mph - 0.00 in   Haze
5:27 AM 46.0 °F 39.6 °F - N/A% 29.89 in 8.0 mi NNW 15.0 mph - 0.00 in   Overcast
5:52 AM 46.0 °F 39.9 °F - N/A% 29.93 in 10.0 mi NNW 13.8 mph 21.9 mph 0.00 in   Overcast
6:45 AM 46.0 °F 40.6 °F - N/A% 29.92 in 10.0 mi NNW 11.5 mph - N/A   Overcast
6:52 AM 46.0 °F 40.2 °F - N/A% 29.95 in 10.0 mi NNW 12.7 mph - N/A   Overcast
7:10 AM 46.0 °F 40.2 °F - N/A% 29.92 in 6.0 mi NNW 12.7 mph - N/A   Haze
7:52 AM 46.0 °F 39.6 °F - N/A% 29.96 in 10.0 mi NNW 15.0 mph 24.2 mph N/A   Overcast
8:07 AM 46.9 °F - - N/A% 29.94 in 10.0 mi NNW 12.7 mph 23.0 mph N/A   Overcast
8:52 AM 46.9 °F - - N/A% 29.97 in 10.0 mi NNW 17.3 mph - N/A   Overcast
9:09 AM 46.9 °F - - N/A% 29.95 in 10.0 mi NNW 13.8 mph - N/A   Overcast
9:19 AM 46.0 °F 38.5 °F - N/A% 29.95 in 10.0 mi NNW 19.6 mph 27.6 mph N/A   Overcast
9:52 AM 46.9 °F - - N/A% 29.97 in 10.0 mi NNW 21.9 mph 29.9 mph N/A   Overcast
10:52 AM 46.9 °F - 41.0 °F 80% 30.03 in 10.0 mi North 16.1 mph - N/A   Overcast
11:15 AM 46.0 °F 39.3 °F 39.9 °F 79% 30.03 in 10.0 mi North 16.1 mph 26.5 mph N/A   Overcast
11:52 AM 46.0 °F 39.6 °F 39.9 °F 79% 30.08 in 10.0 mi North 15.0 mph 27.6 mph N/A   Overcast
12:52 PM 44.6 °F 37.2 °F 39.2 °F 81% 30.05 in 10.0 mi North 17.3 mph 24.2 mph N/A   Overcast
1:52 PM 46.0 °F 38.8 °F 39.0 °F 76% 30.08 in 10.0 mi NNW 18.4 mph 25.3 mph N/A   Overcast
2:28 PM 46.0 °F 39.3 °F 39.0 °F 76% 30.04 in 10.0 mi NNW 16.1 mph 28.8 mph N/A   Overcast
2:52 PM 46.9 °F - 37.9 °F 71% 30.06 in 10.0 mi NNW 21.9 mph 31.1 mph N/A   Overcast
3:52 PM 46.4 °F 39.0 °F 37.4 °F 71% 30.04 in 10.0 mi NNW 19.6 mph 32.2 mph N/A   Overcast
4:52 PM 45.0 °F 36.6 °F 37.0 °F 74% 30.08 in 10.0 mi North 21.9 mph 34.5 mph N/A   Overcast
5:52 PM 45.0 °F 37.4 °F 37.0 °F 74% 30.09 in 10.0 mi North 18.4 mph - N/A   Overcast
6:52 PM 45.0 °F 37.4 °F 36.0 °F 71% 30.12 in 10.0 mi North 18.4 mph 28.8 mph N/A   Overcast
7:52 PM 44.1 °F 36.8 °F 36.0 °F 73% 30.13 in 10.0 mi North 16.1 mph 27.6 mph N/A   Overcast
8:52 PM 43.0 °F 34.8 °F 35.1 °F 74% 30.13 in 10.0 mi North 18.4 mph 26.5 mph N/A   Overcast
9:52 PM 42.1 °F 32.3 °F 33.1 °F 70% 30.16 in 10.0 mi North 24.2 mph 35.7 mph N/A   Overcast
10:52 PM 41.0 °F 33.9 °F 34.0 °F 76% 30.15 in 10.0 mi North 12.7 mph 26.5 mph N/A   Mostly Cloudy
11:00 PM 41.0 °F 33.5 °F 34.0 °F 76% 30.12 in 10.0 mi North 13.8 mph 21.9 mph N/A   Scattered Clouds
11:14 PM 41.0 °F 35.8 °F 34.0 °F 76% 30.12 in 10.0 mi NNW 8.1 mph - N/A   Mostly Cloudy
11:27 PM 39.2 °F 32.5 °F 33.8 °F 81% 30.13 in 10.0 mi NNW 10.4 mph - N/A   Scattered Clouds
11:52 PM 39.9 °F 33.4 °F 34.0 °F 79% 30.17 in 10.0 mi North 10.4 mph 18.4 mph N/A   Clear